Tracking 32579 objects as of 16-Dec-2025
HD Live streaming from Space Station
objects crossing your sky now

COSMOS 374

Track COSMOS 374 now!
10-day predictions
COSMOS 374 is classified as:


NORAD ID: 4594
Int'l Code: 1970-089A
Perigee: 539.9 km
Apogee: 2,024.8 km
Inclination: 62.9 °
Period: 111.1 minutes
Semi major axis: 7653 km
RCS: 0.5589 m2 (medium)
Launch date: October 23, 1970
Source: Commonwealth of Independent States (former USSR) (CIS)
Launch site: TYURATAM MISSILE AND SPACE COMPLEX (TTMTR)
Your satellite tracking list
Your tracking list is empty




NASA's NSSDC Master Catalog

Two Line Element Set (TLE):
1 04594U 70089A   25349.99057838  .00000416  00000-0  18290-3 0  9992
2 04594  62.9316 209.6508 0970051  43.4264 323.9128 12.96658749645152
Source of the keplerian elements: AFSPC